{"data":{"norad_id":60908,"epoch":"2026-09-21T16:06:31.623840Z","epoch_age_seconds":86997,"freshness":"FRESH","line1":"1 60908U 24154F   26264.67119935 -.00003926  00000+0 -27570-4 0  9996","line2":"2 60908  53.1591 245.2836 0000852  75.9477 284.1635 15.69708343119290","mean_motion":15.69708343,"eccentricity":8.52e-5,"inclination_deg":53.1591,"raan_deg":245.2836,"arg_perigee_deg":75.9477,"mean_anomaly_deg":284.1635,"bstar":-2.757e-5,"rev_number":11929,"period_min":91.736787054842,"perigee_km":359.15742572816,"apogee_km":360.30555851922,"semimajor_km":6737.8684921237,"source":"CELESTRAK","updated_at":"2026-09-22T09:00:49.283459Z"}}